CUBESAT XI-IV (CO-57) (27848 NORAD) Tracking and Keplerian Element Data

This shows tracking and keplerian element data for the satellite.

Feedback or suggestion? Click here.




ElementValue
Catalog27848
NameCUBESAT XI-IV (CO-57)
Epoch Orbit10423
Epoch Day286.60496819
Epoch Year2024
RAAN292.208
Inclination98.6832
Eccentricity0.000964
Argument of Perigee173.391
Mean Anonmoly186.7397
Mean Motion14.22944942
Decay Rate1.494E-05
L11 27848U 03031J 24286.60496819 .00001494 00000+0 68312-3 0 9991
L22 27848 98.6832 292.2080 0009640 173.3910 186.7397 14.22944942104235



Live tracking and technical data element details for CUBESAT XI-IV (CO-57) (NORAD 27848). CUBESAT XI-IV (CO-57) can be tracked NOW for your location showing map with azimuth and elevation plus other details from your city location.







IsCatalogInMostPopularTable: catalog: 27848, numindb: 565
Update: records affected: 1



GetName: 27848 CUBESAT XI-IV (CO-57)

Hit Count: updated at: Thu, 23 Jan 2025 16:28:57 GMT